Date String (YYYY-MM-DD hh:mm:ss) UTC,Instrument flags,absolute air pressure of the measurement (hPa),sample flow rate (lpm),inlet stack bypass flow (lpm),air temperature of the measurement (°C),ambient temperature measured by the external sensor (°C),aerosol sample conditioner tube jacket temperature (°C),OPC LED temperature (°C),internal box temperature (°C),relative humidity of the measurement (%),span deviation,mass concentration of particles derived from Lorenz-Mie calculation of OPC scattering (μg/m³),mass concentration of particles derived from Lorenz-Mie calculation of OPC scattering (μg/m³),mass concentration of particles derived from Lorenz-Mie calculation of OPC scattering (μg/m³)
DateTimeUTC,F1_M11,P_M11,Q1_M11,Q2_M11,T1_M11,T2_M11,T3_M11,T4_M11,T5_M11,U1_M11,ZSPAN_M11,X0_M11,X2_M11,X1_M11
2023-11-12 00:00:00,SystemResetWarning,0831.1,4.99,000.00,027.8,026.6,000.0,036.3,029.2,5.9,0000.0,0005.56,0002.56,0001.79
2023-11-12 00:01:00,SystemResetWarning,0831.1,4.99,000.00,027.8,026.6,000.0,036.3,029.2,5.9,0000.0,0005.59,0002.57,0001.80
2023-11-12 00:02:00,SystemResetWarning,0831.2,4.99,000.00,027.8,026.6,000.0,036.3,029.2,5.9,0000.0,0005.74,0002.63,0001.81
2023-11-12 00:03:00,SystemResetWarning,0831.1,5.01,000.00,027.8,026.5,000.0,036.3,029.1,5.9,0000.0,0004.74,0002.64,0001.84
2023-11-12 00:04:00,SystemResetWarning,0831.1,5.00,000.00,027.8,026.6,000.0,036.2,029.1,5.9,0000.0,0004.39,0002.63,0001.86
2023-11-12 00:05:00,SystemResetWarning,0831.1,5.00,000.00,027.8,026.6,000.0,036.2,029.1,5.9,0000.0,0004.52,0002.67,0001.88
2023-11-12 00:06:00,SystemResetWarning,0831.1,5.00,000.00,027.8,026.5,000.0,036.2,029.1,5.9,0000.0,0004.85,0002.70,0001.89
2023-11-12 00:07:00,SystemResetWarning,0831.1,5.00,000.00,027.8,026.5,000.0,036.2,029.1,5.9,0000.0,0005.10,0002.70,0001.90
2023-11-12 00:08:00,SystemResetWarning,0831.1,5.00,000.00,027.8,026.5,000.0,036.2,029.1,6.0,0000.0,0004.88,0002.66,0001.90
2023-11-12 00:09:00,SystemResetWarning,0831.1,5.00,000.00,027.8,026.5,000.0,036.2,029.1,6.0,0000.0,0004.78,0002.65,0001.92
2023-11-12 00:10:00,SystemResetWarning,0831.1,5.00,000.00,027.7,026.5,000.0,036.2,029.0,6.0,0000.0,0004.77,0002.66,0001.94
2023-11-12 00:11:00,SystemResetWarning,0831.1,5.00,000.00,027.7,026.5,000.0,036.2,029.1,6.0,0000.0,0004.67,0002.62,0001.94
2023-11-12 00:12:00,SystemResetWarning,0831.1,5.00,000.00,027.7,026.5,000.0,036.2,029.1,6.0,0000.0,0004.65,0002.59,0001.93
2023-11-12 00:13:00,SystemResetWarning,0831.0,5.00,000.00,027.7,026.5,000.0,036.2,029.0,6.0,0000.0,0005.38,0002.51,0001.92
2023-11-12 00:14:00,SystemResetWarning,0831.0,5.00,000.00,027.7,026.4,000.0,036.2,029.1,6.0,0000.0,0005.31,0002.47,0001.90
2023-11-12 00:15:00,SystemResetWarning,0831.0,5.01,000.00,027.7,026.4,000.0,036.2,029.0,6.0,0000.0,0005.42,0002.45,0001.88
2023-11-12 00:16:00,SystemResetWarning,0831.0,5.00,000.00,027.7,026.4,000.0,036.1,029.0,6.0,0000.0,0005.76,0002.41,0001.87
2023-11-12 00:17:00,SystemResetWarning,0831.0,5.00,000.00,027.7,026.4,000.0,036.1,029.0,6.0,0000.0,0006.31,0002.41,0001.88
2023-11-12 00:18:00,SystemResetWarning,0831.1,5.00,000.00,027.7,026.4,000.0,036.1,029.0,6.0,0000.0,0005.98,0002.38,0001.88
2023-11-12 00:19:00,SystemResetWarning,0831.2,5.00,000.00,027.7,026.4,000.0,036.1,029.0,6.0,0000.0,0006.03,0002.37,0001.87
2023-11-12 00:20:00,SystemResetWarning,0831.1,4.99,000.00,027.7,026.4,000.0,036.1,029.0,6.1,0000.0,0006.30,0002.38,0001.86
2023-11-12 00:21:00,SystemResetWarning,0831.1,5.00,000.00,027.7,026.4,000.0,036.1,028.9,6.1,0000.0,0006.92,0002.46,0001.86
2023-11-12 00:22:00,SystemResetWarning,0831.1,5.00,000.00,027.6,026.4,000.0,036.1,029.0,6.1,0000.0,0007.21,0002.53,0001.87
2023-11-12 00:23:00,SystemResetWarning,0831.1,5.00,000.00,027.6,026.4,000.0,036.1,029.0,6.1,0000.0,0007.28,0002.58,0001.88
2023-11-12 00:24:00,SystemResetWarning,0831.1,5.00,000.00,027.6,026.4,000.0,036.1,029.0,6.1,0000.0,0006.38,0002.60,0001.89
2023-11-12 00:25:00,SystemResetWarning,0831.1,5.00,000.00,027.6,026.4,000.0,036.1,029.0,6.1,0000.0,0006.39,0002.63,0001.89
2023-11-12 00:26:00,SystemResetWarning,0831.2,5.00,000.00,027.6,026.4,000.0,036.1,029.0,6.1,0000.0,0006.34,0002.64,0001.90
2023-11-12 00:27:00,SystemResetWarning,0831.2,5.00,000.00,027.6,026.4,000.0,036.1,029.0,6.2,0000.0,0005.90,0002.67,0001.91
2023-11-12 00:28:00,SystemResetWarning,0831.2,5.01,000.00,027.6,026.4,000.0,036.1,029.0,6.2,0000.0,0005.56,0002.67,0001.92
2023-11-12 00:29:00,SystemResetWarning,0831.1,5.01,000.00,027.6,026.4,000.0,036.0,029.0,6.3,0000.0,0005.58,0002.74,0001.94
2023-11-12 00:30:00,SystemResetWarning,0831.2,5.00,000.00,027.6,026.4,000.0,036.0,029.0,6.2,0000.0,0005.60,0002.78,0001.97
2023-11-12 00:31:00,SystemResetWarning,0831.2,4.99,000.00,027.6,026.3,000.0,036.0,029.0,6.2,0000.0,0005.92,0002.87,0002.00
2023-11-12 00:32:00,SystemResetWarning,0831.2,5.00,000.00,027.6,026.3,000.0,036.0,028.9,6.3,0000.0,0006.17,0002.81,0002.00
2023-11-12 00:33:00,SystemResetWarning,0831.2,5.00,000.00,027.6,026.3,000.0,036.0,028.9,6.3,0000.0,0006.37,0002.88,0002.03
2023-11-12 00:34:00,SystemResetWarning,0831.2,5.00,000.00,027.6,026.3,000.0,036.0,028.9,6.3,0000.0,0007.01,0002.90,0002.05
2023-11-12 00:35:00,SystemResetWarning,0831.2,5.00,000.00,027.6,026.3,000.0,036.0,028.9,6.3,0000.0,0007.06,0002.93,0002.05
2023-11-12 00:36:00,SystemResetWarning,0831.3,5.00,000.00,027.5,026.2,000.0,036.0,028.9,6.3,0000.0,0007.13,0002.93,0002.05
2023-11-12 00:37:00,SystemResetWarning,0831.2,5.00,000.00,027.5,026.2,000.0,036.0,028.8,6.3,0000.0,0007.17,0002.95,0002.06
2023-11-12 00:38:00,SystemResetWarning,0831.3,5.00,000.00,027.5,026.2,000.0,036.0,028.9,6.3,0000.0,0007.28,0002.99,0002.07
2023-11-12 00:39:00,SystemResetWarning,0831.3,5.00,000.00,027.5,026.2,000.0,036.0,028.9,6.2,0000.0,0006.91,0002.99,0002.06
2023-11-12 00:40:00,SystemResetWarning,0831.3,5.00,000.00,027.5,026.1,000.0,035.9,028.8,6.1,0000.0,0006.85,0002.96,0002.05
2023-11-12 00:41:00,SystemResetWarning,0831.2,5.00,000.00,027.5,026.1,000.0,035.9,028.8,6.0,0000.0,0007.38,0003.01,0002.04
2023-11-12 00:42:00,SystemResetWarning,0831.3,5.00,000.00,027.5,026.1,000.0,035.9,028.7,6.0,0000.0,0007.56,0002.95,0002.03
2023-11-12 00:43:00,SystemResetWarning,0831.3,5.00,000.00,027.4,026.1,000.0,035.9,028.8,6.1,0000.0,0006.97,0002.90,0002.01
2023-11-12 00:44:00,SystemResetWarning,0831.3,4.99,000.00,027.4,026.1,000.0,035.9,028.7,6.3,0000.0,0006.61,0002.78,0001.98
2023-11-12 00:45:00,SystemResetWarning,0831.3,4.99,000.00,027.4,026.1,000.0,035.9,028.7,6.4,0000.0,0006.04,0002.75,0001.95
2023-11-12 00:46:00,SystemResetWarning,0831.3,5.00,000.00,027.4,026.0,000.0,035.9,028.6,6.4,0000.0,0006.06,0002.76,0001.95
2023-11-12 00:47:00,SystemResetWarning,0831.3,5.00,000.00,027.4,026.0,000.0,035.9,028.6,6.4,0000.0,0006.02,0002.77,0001.95
2023-11-12 00:48:00,SystemResetWarning,0831.3,5.00,000.00,027.3,026.0,000.0,035.8,028.6,6.3,0000.0,0005.99,0002.78,0001.94
2023-11-12 00:49:00,SystemResetWarning,0831.2,5.00,000.00,027.3,026.0,000.0,035.8,028.7,5.9,0000.0,0005.85,0002.75,0001.94
2023-11-12 00:50:00,SystemResetWarning,0831.3,5.00,000.00,027.3,026.0,000.0,035.8,028.6,5.9,0000.0,0005.82,0002.76,0001.94
2023-11-12 00:51:00,SystemResetWarning,0831.3,5.00,000.00,027.3,025.9,000.0,035.8,028.6,6.0,0000.0,0005.74,0002.73,0001.93
2023-11-12 00:52:00,SystemResetWarning,0831.3,5.00,000.00,027.3,025.9,000.0,035.8,028.6,6.0,0000.0,0005.30,0002.68,0001.92
2023-11-12 00:53:00,SystemResetWarning,0831.3,5.00,000.00,027.3,025.9,000.0,035.8,028.6,6.1,0000.0,0004.53,0002.63,0001.89
2023-11-12 00:54:00,SystemResetWarning,0831.3,5.00,000.00,027.3,025.9,000.0,035.8,028.6,6.0,0000.0,0004.35,0002.63,0001.86
2023-11-12 00:55:00,SystemResetWarning,0831.3,5.01,000.00,027.2,025.9,000.0,035.7,028.5,5.9,0000.0,0004.39,0002.68,0001.86
2023-11-12 00:56:00,SystemResetWarning,0831.3,5.00,000.00,027.2,025.9,000.0,035.7,028.5,6.1,0000.0,0004.30,0002.67,0001.85
2023-11-12 00:57:00,SystemResetWarning,0831.3,5.01,000.00,027.2,025.9,000.0,035.7,028.6,6.4,0000.0,0004.14,0002.61,0001.85
2023-11-12 00:58:00,SystemResetWarning,0831.3,5.00,000.00,027.2,025.9,000.0,035.7,028.5,6.3,0000.0,0004.12,0002.60,0001.84
2023-11-12 00:59:00,SystemResetWarning,0831.3,5.00,000.00,027.2,025.9,000.0,035.7,028.5,6.1,0000.0,0004.14,0002.60,0001.84
